Date,TemperatureHighF,TemperatureAvgF,TemperatureLowF,DewpointHighF,DewpointAvgF,DewpointLowF,HumidityHigh,HumidityAvg,HumidityLow,PressureMaxIn,PressureMinIn,WindSpeedMaxMPH,WindSpeedAvgMPH,GustSpeedMaxMPH,PrecipitationSumIn
2013-4-1,41,30,16,30,21,14,97,72,43,0.00,40.00,7,3,12,0.01
2013-4-2,38,23,6,17,12,3,88,63,39,0.00,40.00,8,3,13,0.01
2013-4-3,36,26,18,10,5,-4,58,43,27,0.00,40.00,11,7,19,0.00
2013-4-4,32,20,5,-3,-5,-9,52,34,19,0.00,40.00,13,8,21,0.00
2013-4-5,20,14,5,-3,-8,-13,47,36,28,0.00,40.00,12,8,23,0.00
2013-4-6,25,8,-10,-1,-10,-18,68,45,31,0.00,40.00,10,4,15,0.00
2013-4-7,10,6,-1,4,-1,-8,81,71,43,0.00,40.00,8,4,11,0.00
2013-4-8,13,2,-18,7,-4,-25,85,76,68,0.00,40.00,8,3,10,0.00
2013-4-9,15,10,6,7,4,2,86,80,67,0.00,40.00,12,5,17,0.00
2013-4-10,14,8,-8,2,-5,-14,77,57,41,0.00,40.00,11,7,18,0.00
2013-4-11,17,1,-19,-3,-12,-27,78,56,39,0.00,40.00,6,2,11,0.00
2013-4-12,24,9,-14,2,-6,-20,80,53,34,0.00,40.00,6,2,8,0.04
2013-4-13,27,10,-13,2,-6,-20,80,51,30,0.00,40.00,7,3,11,0.01
2013-4-14,34,18,1,16,5,-7,73,57,39,0.00,40.00,5,3,9,0.01
2013-4-15,34,24,4,15,6,0,86,50,26,0.00,40.00,9,5,16,0.01
2013-4-16,30,21,1,13,4,-4,77,50,40,0.00,40.00,8,4,14,0.00
2013-4-17,32,23,2,7,5,-3,80,47,33,0.00,40.00,10,5,20,0.00
2013-4-18,34,25,14,7,3,-1,62,39,29,0.00,40.00,12,7,21,0.00
2013-4-19,44,28,2,14,7,-5,73,44,24,0.00,40.00,7,4,10,0.00
2013-4-20,45,32,5,13,8,-1,77,40,23,0.00,40.00,6,4,10,0.00
2013-4-21,46,31,9,14,11,5,88,48,24,0.00,40.00,6,3,9,0.00
2013-4-22,49,32,13,16,13,9,90,49,24,0.00,40.00,6,3,10,0.00
2013-4-23,48,34,16,19,16,11,86,49,28,0.00,40.00,11,5,18,0.00
2013-4-24,37,34,29,32,26,18,98,73,47,0.00,40.00,14,9,29,0.03
2013-4-25,37,29,20,23,3,-6,80,34,23,0.00,40.00,8,5,14,0.02
2013-4-26,33,23,10,23,10,3,92,60,38,0.00,40.00,7,4,10,0.00
2013-4-27,31,25,17,23,7,-6,97,53,20,0.00,40.00,13,6,25,0.00
2013-4-28,40,22,2,15,2,-7,74,44,24,0.00,40.00,10,4,15,0.00
2013-4-29,33,27,20,29,17,11,98,68,58,0.00,40.00,11,6,17,0.00
2013-4-30,42,34,27,30,27,21,98,76,45,0.00,40.00,8,4,11,0.15